Starlink 30428

operational
NORAD ID: 57906 Int'l Des: 2023-146 Owner: SPXS Country: US Constellation: starlink
LEOCIRCULAR

关于 Starlink 30428

正在加载描述...

实时位置

正在加载3D地球...

即将过境

高度历史

Altitude vs Time

uPlot chart will show altitude changes over time

两行轨道根数

1 57906U 23146R 25351.62211949 .00000083 00000-0 21244-4 0 9991
2 57906 43.0044 39.0637 0001296 279.4483 80.6213 15.02543757123664
Epoch: Dec 17, 2025 • Age: 18 hours

当前状态

高度 562.3 km
速度 7.59 km/s
星下点 40.12°N, 120.14°W
发射日期 Sep 20, 2023
运行时间 2.2 years
类型 internet

技术详情

分类 Payload
质量 730.00 kg
干质量 700.00 kg
总质量 730.00 kg
长度 0.30 m
直径 4.10 m
跨度 29.00 m
形状 Box + pan
制造商 SPXS
平台类型 Starlink V2M
阶段状态 In Orbit
所有者/国家 SPXS/US

大型星座

Loading constellations...